Weather History for Grants-Milan, NM

Change the Weather History Date:

Monday, January 2, 2012

  Actual Average Record
Temperature  
Mean Temperature 16 °F -  
Max Temperature 32 °F 41 °F 62 °F (1981)
Min Temperature 0 °F 12 °F -13 °F (2011)
Degree Days  
Heating Degree Days 49    
Moisture  
Dew Point 7 °F    
Average Humidity 78    
Maximum Humidity 88    
Minimum Humidity 61    
Precipitation  
Precipitation 0.00 in - - ()
Sea Level Pressure  
Sea Level Pressure 30.81 in    
Wind  
Wind Speed 7 mph (NNW)    
Max Wind Speed 13 mph    
Max Gust Speed -    
Averages and records for this station are not official NWS values.
T = Trace of Precipitation, MM = Missing Value Source: NWS Daily Summary

Daily Weather History Graph

Daily Weather History Graph

Search for Another Location

Airport:

Trip Planner

Search our weather history database for the weather conditions in past years. The results will help you decide how hot, cold, wet, or windy it might be!

Date:

Astronomy

Jan. 02, 2012 Rise Set
Actual Time 7:20 AM MST 5:11 PM MST
Civil Twilight 6:52 AM MST 5:39 PM MST
Nautical Twilight 6:20 AM MST 6:10 PM MST
Astronomical Twilight 5:49 AM MST 6:41 PM MST
Moon 12:23 PM MST (1/2) 1:22 AM MST (1/2)
Length of Visible Light 10h 47m
Length of Day
9h 50m
Waxing Gibbous, 64% of the Moon is Illuminated
Jan 2
Waxing Gibbous
Jan 9
Full
Jan 16
Last Quarter
Jan 23
New
Jan 30
First Quarter

Hourly Weather History & Observations

Time (MST) Temp. Windchill Dew Point Humidity Pressure Visibility Wind Dir Wind Speed Gust Speed Precip Events Conditions
12:53 AM 7.0 °F -6.6 °F 1.9 °F 80% 30.77 in - NNW 9.2 mph - N/A   Unknown
1:53 AM 9.0 °F -6.6 °F 5.0 °F 84% 30.76 in - WNW 12.7 mph - N/A   Unknown
2:53 AM 12.0 °F 1.5 °F 6.1 °F 77% 30.74 in - NW 6.9 mph - N/A   Unknown
3:53 AM 5.0 °F -6.9 °F -0.0 °F 80% 30.78 in - NNW 6.9 mph - N/A   Unknown
4:53 AM 3.9 °F -5.3 °F -0.0 °F 84% 30.82 in - North 4.6 mph - N/A   Unknown
5:53 AM 1.0 °F - -2.9 °F 83% 30.88 in - Calm Calm - N/A   Unknown
6:53 AM -0.9 °F -16.4 °F -5.1 °F 83% 30.89 in - NNW 9.2 mph - N/A   Unknown
7:00 AM - - - N/A% - - North - - N/A   Unknown
7:53 AM 1.9 °F -10.6 °F -2.0 °F 83% 30.95 in - North 6.9 mph - N/A   Unknown
8:53 AM 8.1 °F -0.5 °F 1.9 °F 76% 30.91 in - NW 4.6 mph - N/A   Unknown
9:53 AM 10.0 °F -1.9 °F 3.9 °F 76% 30.92 in - NW 8.1 mph - N/A   Unknown
10:53 AM 17.1 °F 11.7 °F 8.1 °F 68% 30.89 in - NW 3.5 mph - N/A   Unknown
11:53 AM 19.9 °F 12.1 °F 10.9 °F 68% 30.83 in - NW 5.8 mph - N/A   Unknown
12:53 PM 27.0 °F 23.0 °F 15.1 °F 61% 30.77 in - NNW 3.5 mph - N/A   Unknown
1:53 PM 28.9 °F 22.8 °F 18.0 °F 64% 30.74 in - NNW 5.8 mph - N/A   Unknown
2:53 PM 32.0 °F - 19.9 °F 61% 30.69 in - Calm Calm - N/A   Unknown
3:53 PM 28.0 °F 21.7 °F 19.9 °F 72% 30.74 in - NNW 5.8 mph - N/A   Unknown
4:53 PM 24.1 °F 18.2 °F 15.1 °F 69% 30.76 in - NW 4.6 mph - N/A   Unknown
5:53 PM 19.0 °F - 12.0 °F 74% 30.80 in - Calm Calm - N/A   Unknown
6:53 PM 14.0 °F 6.5 °F 10.9 °F 88% 30.84 in - NNW 4.6 mph - N/A   Unknown
7:53 PM 16.0 °F 4.4 °F 12.0 °F 84% 30.82 in - NW 9.2 mph - N/A   Unknown
8:53 PM 10.9 °F -0.8 °F 8.1 °F 88% 30.81 in - NNW 8.1 mph - N/A   Unknown
9:53 PM 8.1 °F -5.3 °F 5.0 °F 87% 30.82 in - NW 9.2 mph - N/A   Unknown
10:53 PM 6.1 °F -7.8 °F 3.0 °F 87% 30.76 in - NNW 9.2 mph - N/A   Unknown
11:53 PM 7.0 °F -7.5 °F 3.9 °F 87% 30.74 in - NW 10.4 mph - N/A   Unknown